Location: Ostrava
(49.8330°N, 18.2830°E)
Time: 08:17:45
(UTC+02:00)

Cosmos 2219 Rocket - Visible Passes

Search period start: 26 April 2015 00:00
Search period end: 06 May 2015 00:00
Orbit: 829 x 846 km, 71.0° (Epoch: 25 April)

Date Brightness Start Highest point End Pass type
(mag) Time Alt. Az. Time Alt. Az. Time Alt. Az.
26 Apr 4.1 04:41:04 10° SSE 04:45:41 28° ESE 04:50:27 10° NE visible
27 Apr 4.1 04:24:56 10° SSE 04:29:26 26° ESE 04:34:04 10° NE visible
28 Apr 4.2 04:08:48 10° SSE 04:13:10 25° ESE 04:17:41 10° NE visible
29 Apr 4.2 03:52:42 10° SSE 03:56:55 23° ESE 04:01:17 10° NE visible
30 Apr 4.2 03:36:36 10° SSE 03:40:39 22° ESE 03:44:53 10° NE visible
01 May 4.3 03:20:32 10° SE 03:24:24 20° ESE 03:28:27 10° NE visible
02 May 4.3 03:04:28 10° SE 03:08:09 19° E 03:12:01 10° ENE visible
02 May 2.2 04:45:55 10° SSW 04:51:30 80° WNW 04:57:10 10° NNE visible
03 May 4.4 02:48:25 10° SE 02:51:53 18° E 02:55:34 10° ENE visible
03 May 2.2 04:29:36 10° SSW 04:35:12 85° WNW 04:40:52 10° NNE visible
04 May 4.4 02:32:25 10° SE 02:35:38 16° E 02:39:05 10° ENE visible
04 May 2.2 04:13:18 10° SSW 04:18:54 90° W 04:24:34 10° NNE visible
05 May 4.4 02:16:26 10° SE 02:19:23 15° E 02:22:35 10° ENE visible
05 May 2.2 03:57:30 13° SSW 04:02:35 85° ESE 04:08:15 10° NNE visible
